Location: Atlantic Beach
(40.5890°N, 73.7290°W)
Time: 06:44:13
(UTC+00:00)

N. Korean satellite - Pass Details

Date: 28 January 2021
Orbit: 451 x 502 km, 97.2° (Epoch: 06 March)

Event Time Altitude Azimuth Distance (km) Brightness Sun altitude
Rises 11:14:43 0° 354° (N) 2,493 10.0 -10.4°
Reaches altitude 10° 11:17:14 10° 335° (NNW) 1,606 8.8 -9.9°
Maximum altitude 11:19:35 18° 291° (WNW) 1,200 7.9 -9.5°
Drops below altitude 10° 11:21:56 10° 248° (WSW) 1,586 8.7 -9.1°
Sets 11:24:24 0° 228° (SW) 2,450 9.8 -8.6°
